LOT269 EPWA-EHAM

Flight info

Callsign LOT269
Flight time N/A
Altitude 38000
Route LOLSI T174 INDIG DCT GOVEN DCT NORKU
Aircraft E195/M-SDE3GILORVW/S

Departure

Time 2026-05-04 12:23
Airport Warsaw Chopin Airport (EPWA)

Arrival

Time N/A
Airport Amsterdam Airport Schiphol (EHAM)
Time Latitude Longitude Altitude Speed Heading
2026-05-04 11:42 52.17478 20.96950 334 ft 0 kts 242°
2026-05-04 12:03 52.17487 20.96978 333 ft 4 kts 242°
2026-05-04 12:03 52.17497 20.97009 336 ft 4 kts 244°
2026-05-04 12:04 52.17502 20.97045 334 ft 4 kts 306°
2026-05-04 12:04 52.17484 20.97068 333 ft 3 kts 332°
2026-05-04 12:04 52.17481 20.97070 333 ft 1 kts 332°
2026-05-04 12:08 52.17492 20.97061 336 ft 5 kts 331°
2026-05-04 12:09 52.17548 20.97012 335 ft 13 kts 332°
2026-05-04 12:09 52.17616 20.96942 337 ft 11 kts 310°
2026-05-04 12:09 52.17603 20.96829 336 ft 11 kts 235°
2026-05-04 12:09 52.17564 20.96725 334 ft 11 kts 240°
2026-05-04 12:10 52.17526 20.96621 337 ft 11 kts 238°
2026-05-04 12:10 52.17467 20.96569 333 ft 10 kts 166°
2026-05-04 12:10 52.17401 20.96626 336 ft 11 kts 152°
2026-05-04 12:10 52.17334 20.96684 337 ft 2 kts 152°
2026-05-04 12:11 52.17326 20.96691 337 ft 2 kts 152°
2026-05-04 12:11 52.17307 20.96707 336 ft 4 kts 152°
2026-05-04 12:11 52.17278 20.96732 334 ft 6 kts 152°
2026-05-04 12:11 52.17239 20.96766 336 ft 7 kts 152°
2026-05-04 12:12 52.17197 20.96804 337 ft 7 kts 148°
2026-05-04 12:12 52.17145 20.96851 334 ft 12 kts 152°
2026-05-04 12:12 52.17059 20.96925 336 ft 15 kts 152°
2026-05-04 12:12 52.16967 20.97002 336 ft 15 kts 153°
2026-05-04 12:13 52.16873 20.97079 334 ft 15 kts 154°
2026-05-04 12:14 52.16737 20.97172 336 ft 0 kts 181°
2026-05-04 12:18 52.16736 20.97172 336 ft 1 kts 181°
2026-05-04 12:18 52.16725 20.97187 336 ft 4 kts 133°
2026-05-04 12:19 52.16689 20.97248 335 ft 11 kts 144°
2026-05-04 12:19 52.16615 20.97313 334 ft 12 kts 152°
2026-05-04 12:19 52.16561 20.97417 337 ft 12 kts 114°
2026-05-04 12:19 52.16524 20.97548 335 ft 13 kts 114°
2026-05-04 12:20 52.16493 20.97661 337 ft 13 kts 115°
2026-05-04 12:20 52.16445 20.97832 336 ft 18 kts 115°
2026-05-04 12:20 52.16391 20.98020 335 ft 18 kts 114°
2026-05-04 12:20 52.16338 20.98209 335 ft 19 kts 114°
2026-05-04 12:21 52.16296 20.98335 334 ft 10 kts 143°
2026-05-04 12:21 52.16224 20.98316 337 ft 12 kts 205°
2026-05-04 12:21 52.16158 20.98234 332 ft 12 kts 252°
2026-05-04 12:21 52.16169 20.98158 337 ft 0 kts 295°
2026-05-04 12:22 52.16217 20.97992 333 ft 51 kts 295°
2026-05-04 12:22 52.16368 20.97454 332 ft 103 kts 295°
2026-05-04 12:22 52.16772 20.96080 372 ft 164 kts 300°
2026-05-04 12:22 52.17401 20.94373 883 ft 178 kts 305°
2026-05-04 12:23 52.18077 20.92657 1597 ft 184 kts 314°
2026-05-04 12:23 52.19149 20.91270 1995 ft 216 kts 337°
2026-05-04 12:23 52.20574 20.90321 2348 ft 233 kts 334°
2026-05-04 12:23 52.21766 20.88537 2860 ft 232 kts 307°
2026-05-04 12:24 52.22376 20.86122 3439 ft 232 kts 283°
2026-05-04 12:24 52.22225 20.83545 4124 ft 232 kts 256°
2026-05-04 12:24 52.21500 20.81230 5151 ft 228 kts 251°
2026-05-04 12:24 52.20792 20.78928 6012 ft 227 kts 255°
2026-05-04 12:25 52.20274 20.76495 6841 ft 227 kts 265°
2026-05-04 12:25 52.20155 20.73912 7585 ft 232 kts 280°
2026-05-04 12:25 52.20271 20.71270 8171 ft 236 kts 275°
2026-05-04 12:25 52.19941 20.68641 8747 ft 241 kts 257°
2026-05-04 12:26 52.19336 20.66089 9541 ft 247 kts 258°
2026-05-04 12:26 52.18714 20.63333 9891 ft 269 kts 259°
2026-05-04 12:26 52.18089 20.60353 10337 ft 286 kts 259°
2026-05-04 12:26 52.17446 20.57202 10861 ft 298 kts 259°
2026-05-04 12:27 52.16776 20.53975 11552 ft 303 kts 258°
2026-05-04 12:27 52.16098 20.50725 12363 ft 302 kts 261°
2026-05-04 12:27 52.15882 20.47332 13192 ft 305 kts 279°
2026-05-04 12:27 52.16072 20.43854 13697 ft 311 kts 279°
2026-05-04 12:28 52.16221 20.40332 14261 ft 313 kts 279°
2026-05-04 12:28 52.16376 20.36775 14809 ft 316 kts 279°
2026-05-04 12:28 52.16529 20.33193 15342 ft 318 kts 279°
2026-05-04 12:28 52.16680 20.29589 15854 ft 320 kts 279°
2026-05-04 12:29 52.16829 20.25954 16338 ft 322 kts 279°
2026-05-04 12:29 52.16975 20.22346 16815 ft 324 kts 279°
2026-05-04 12:29 52.17124 20.18666 17274 ft 326 kts 279°
2026-05-04 12:29 52.17273 20.14968 17709 ft 328 kts 279°
2026-05-04 12:30 52.17421 20.11245 18118 ft 330 kts 279°
2026-05-04 12:30 52.17571 20.07496 18470 ft 333 kts 279°
2026-05-04 12:30 52.17721 20.03719 18778 ft 335 kts 279°
2026-05-04 12:30 52.17872 19.99921 19076 ft 337 kts 279°
2026-05-04 12:31 52.18026 19.96097 19370 ft 339 kts 279°
2026-05-04 12:31 52.18177 19.92253 19663 ft 341 kts 280°
2026-05-04 12:31 52.18328 19.88389 19932 ft 342 kts 278°
2026-05-04 12:31 52.18224 19.84546 20109 ft 345 kts 269°
2026-05-04 12:32 52.17845 19.80639 20471 ft 344 kts 268°
2026-05-04 12:32 52.17129 19.72944 20964 ft 347 kts 269°
2026-05-04 12:32 52.16770 19.69041 21190 ft 349 kts 269°
2026-05-04 12:33 52.16410 19.65113 21385 ft 351 kts 269°
2026-05-04 12:33 52.16048 19.61170 21604 ft 353 kts 269°
2026-05-04 12:33 52.15684 19.57205 21792 ft 355 kts 269°
2026-05-04 12:33 52.15318 19.53224 22001 ft 356 kts 269°
2026-05-04 12:34 52.14948 19.49235 22191 ft 357 kts 269°
2026-05-04 12:34 52.14577 19.45234 22393 ft 358 kts 269°
2026-05-04 12:34 52.14202 19.41214 22543 ft 359 kts 269°
2026-05-04 12:34 52.13826 19.37181 22707 ft 361 kts 269°
2026-05-04 12:35 52.13442 19.33130 22821 ft 363 kts 269°
2026-05-04 12:35 52.13062 19.29062 22972 ft 364 kts 269°
2026-05-04 12:35 52.12674 19.24982 23120 ft 365 kts 269°
2026-05-04 12:35 52.12285 19.20887 23270 ft 366 kts 269°
2026-05-04 12:36 52.11900 19.16838 23386 ft 367 kts 269°
2026-05-04 12:36 52.11509 19.12722 23504 ft 368 kts 269°
2026-05-04 12:36 52.11113 19.08602 23616 ft 369 kts 269°
2026-05-04 12:36 52.10715 19.04472 23724 ft 369 kts 269°
2026-05-04 12:37 52.10314 19.00345 23832 ft 369 kts 269°
2026-05-04 12:37 52.09906 18.96207 23928 ft 370 kts 269°
2026-05-04 12:37 52.09504 18.92063 24019 ft 371 kts 269°
2026-05-04 12:37 52.09101 18.87923 24104 ft 371 kts 269°
2026-05-04 12:38 52.08694 18.83771 24192 ft 372 kts 269°
2026-05-04 12:38 52.08285 18.79611 24280 ft 372 kts 269°
2026-05-04 12:38 52.07874 18.75448 24360 ft 373 kts 269°
2026-05-04 12:38 52.07463 18.71287 24440 ft 373 kts 269°
2026-05-04 12:39 52.07056 18.67176 24519 ft 374 kts 269°
2026-05-04 12:39 52.06639 18.63000 24588 ft 374 kts 269°
2026-05-04 12:39 52.06202 18.58835 24740 ft 375 kts 265°
2026-05-04 12:39 52.05693 18.54682 25033 ft 375 kts 265°
2026-05-04 12:40 52.05197 18.50524 25290 ft 375 kts 266°
2026-05-04 12:40 52.04728 18.46350 25534 ft 376 kts 266°
2026-05-04 12:40 52.03835 18.42395 26057 ft 377 kts 231°
2026-05-04 12:40 52.01908 18.39500 26580 ft 384 kts 205°
2026-05-04 12:41 51.99586 18.40496 25777 ft 407 kts 109°
2026-05-04 12:41 51.98784 18.44906 26450 ft 400 kts 96°
2026-05-04 12:41 51.99693 18.48786 26313 ft 377 kts
2026-05-04 12:41 52.02436 18.49186 20294 ft 315 kts 351°
2026-05-04 12:42 52.04659 18.48916 19621 ft 327 kts 352°
2026-05-04 12:42 52.06824 18.48125 19313 ft 314 kts 330°
2026-05-04 12:42 52.08510 18.46046 19008 ft 299 kts 304°
2026-05-04 12:42 52.09391 18.43089 18679 ft 288 kts 278°